Location: *
(43.7000°S, 168.7000°W)
Time: 14:55:54
(UTC+00:00)

Lacrosse 4 Rocket - Pass Details

Date: 07 July 2020
Orbit: 542 x 616 km, 68.0° (Epoch: 03 August)

Event Time Altitude Azimuth Distance (km) Brightness Sun altitude
Exits shadow 16:53:22 24° 320° (NW) 1,299 2.9 -20.0°
Drops below altitude 10° 16:55:49 10° 348° (NNW) 1,976 4.1 -19.5°
Sets 16:58:18 0° 360° (N) 2,877 5.2 -19.1°
